SCP
0 0 0 0 0 0 0 0 0 0 0 0 0 0 0 0 0 0 0 0 0 0 0 0 0 0 0 0 0 0 0 0 0 0 0 0 0 0 0 0 0 0 0 0 0 0 0 0 0
0 0 0 0 0 0 0 0 0 0 0 0 0 0 0 0 0 0 0 0 0 0 0 0 0 0 0 0 0 0 0 0 0 0 0 0 0 0 0 0 0 0 0 0 0 0 0 0 0
0 0 0 0 0 0 0 0 0 0 0 0 0 0 0 0 0 0 0 0 0 0 0 0 1 1 1 1 1 0 0 0 0 0 0 0 0 0 0 0 0 0 0 0 0 0 0 0 0
0 0 0 0 0 0 0 0 0 0 0 0 0 0 0 0 0 0 0 0 0 1 1 1 1 1 1 1 1 1 0 0 0 0 0 0 0 0 0 0 0 0 0 0 0 0 0 0 0
0 0 0 0 0 0 0 0 0 0 0 0 0 0 0 0 0 0 0 0 0 1 1 1 1 1 1 1 1 1 1 1 0 0 0 0 0 0 0 0 0 0 0 0 0 0 0 0 0
0 0 0 0 0 0 0 0 0 0 0 0 0 0 0 0 0 0 0 0 0 1 1 1 1 1 1 1 1 1 1 1 1 0 0 0 0 0 0 0 0 0 0 0 0 0 0 0 0
0 0 0 0 0 0 0 0 0 0 0 0 0 0 0 0 0 0 0 0 0 1 1 1 1 1 1 1 1 1 1 1 1 1 0 0 0 0 0 0 0 0 0 0 0 0 0 1 1
0 0 0 0 0 0 0 0 0 0 1 1 1 0 0 0 0 1 1 1 1 1 1 1 1 1 1 1 1 1 1 1 1 1 1 1 0 0 0 1 0 0 0 0 0 0 1 1 1
0 0 0 0 0 0 0 0 0 1 1 1 1 1 0 0 1 1 1 1 1 1 1 1 1 1 1 1 1 1 1 1 1 1 1 1 1 1 1 1 1 1 0 0 1 1 1 1 1
0 0 0 0 0 0 0 0 0 1 2 2 1 1 1 1 1 2 2 2 1 1 1 1 1 1 1 1 1 1 1 1 1 1 1 1 1 1 1 1 1 1 1 1 1 1 1 1 1
0 0 0 0 0 0 0 0 0 1 1 2 1 1 1 1 2 2 2 2 2 1 1 1 1 1 1 1 1 1 1 1 1 1 1 1 1 1 1 1 1 1 1 1 1 1 1 1 1
0 0 0 0 0 0 0 0 0 0 1 2 2 2 1 1 1 2 2 3 2 2 1 1 1 1 1 1 1 1 1 2 2 2 1 1 1 1 1 1 1 1 1 1 1 1 1 1 1
0 0 0 0 0 0 0 0 0 1 3 4 4 4 3 2 2 2 3 3 3 2 2 2 2 1 1 1 1 1 2 2 2 2 2 2 1 1 1 1 1 1 1 2 2 1 1 1 1
0 0 0 0 0 0 0 0 1 3 6 7 7 7 7 6 5 4 4 4 3 3 2 2 2 2 2 1 2 2 2 2 2 2 2 2 2 2 2 2 2 1 2 2 2 2 2 1 1
0 0 0 0 0 0 0 0 2 6 9 10 9 9 9 9 9 8 7 6 5 4 3 3 3 2 2 2 2 3 2 2 2 2 2 2 2 2 2 2 2 2 2 2 2 2 2 2 2
0 0 0 0 0 0 0 1 3 7 10 10 9 9 10 11 10 9 9 8 7 5 5 4 4 3 3 2 2 3 2 2 2 2 2 2 2 2 3 3 2 2 2 5 6 5 3 2 2
0 0 0 0 0 0 0 1 3 6 8 9 9 9 9 9 8 8 8 8 8 7 6 5 4 3 3 2 2 2 2 2 2 2 2 2 2 2 2 3 3 3 3 7 11 6 2 2 2
0 0 0 0 0 0 0 1 2 4 5 7 8 9 8 7 6 5 6 6 7 7 6 4 3 3 2 2 2 1 1 1 1 1 1 1 2 2 2 3 3 4 5 6 7 5 2 1 1
0 0 0 0 0 0 0 0 1 2 4 6 8 9 8 7 5 4 4 4 5 5 4 3 2 2 2 1 1 1 1 1 1 1 1 1 2 2 2 3 3 5 6 5 3 3 2 1 1
0 0 0 0 0 0 0 0 0 1 4 6 8 8 8 6 4 3 3 3 3 3 2 2 2 1 1 1 1 1 1 1 1 1 1 1 1 2 2 3 3 4 4 4 3 3 2 1 1
0 0 0 0 0 0 0 0 0 1 4 5 6 6 6 5 4 3 2 2 2 2 2 1 1 1 1 1 1 1 1 1 1 1 1 1 1 2 2 2 2 2 3 3 3 3 2 2 1
0 0 0 0 0 0 0 0 0 2 3 4 4 4 3 2 2 2 1 1 1 1 1 1 1 1 2 2 1 1 1 1 1 1 1 1 1 1 2 2 2 2 2 2 2 2 2 2 1
0 0 0 0 0 0 0 0 0 1 2 2 2 2 1 1 1 1 0 0 0 1 1 1 1 1 2 2 2 1 1 1 0 0 0 0 1 1 1 1 2 2 2 2 2 2 2 1 1
0 0 0 0 0 0 0 0 0 1 1 1 1 1 1 0 0 0 0 0 0 0 1 1 1 1 2 2 2 1 1 0 0 0 0 0 0 0 0 1 1 2 1 1 1 1 1 1 1
0 0 0 0 0 0 0 0 0 0 1 1 1 0 0 0 0 0 0 0 0 0 1 1 1 1 2 2 2 1 0 0 0 0 0 0 0 0 0 0 1 1 1 1 1 1 1 1 0
0 0 0 0 0 0 0 0 0 0 0 0 0 0 0 0 0 0 0 0 0 0 1 1 1 1 2 2 1 1 0 0 0 0 0 0 0 0 0 0 0 1 1 1 1 1 1 0 0
0 0 0 0 0 0 0 0 0 0 0 0 0 0 0 0 0 0 0 0 0 0 0 1 1 1 1 2 1 1 0 0 0 0 0 0 0 0 0 0 0 0 0 1 1 0 0 0 0
0 0 0 0 0 0 0 0 0 0 0 0 0 0 0 0 0 0 0 0 0 0 0 1 1 1 1 1 1 0 0 0 0 0 0 0 0 0 0 0 0 0 0 0 0 0 0 0 0
0 0 0 0 0 0 0 0 0 0 0 0 0 0 0 0 0 0 0 0 0 0 0 1 1 1 1 1 1 0 0 0 0 0 0 0 0 0 0 0 0 0 0 0 0 0 0 0 0
0 0 0 0 0 0 0 0 0 0 0 0 0 0 0 0 0 0 0 0 0 0 0 1 1 1 1 1 0 0 0 0 0 0 0 0 0 0 0 0 0 0 0 0 0 0 0 0 0
Wind_Speed
5 4 1 2 3 5 4 5 3 4 5 6 10 12 8 4 3 3 4 13 18 16 12 18 21 21 20 18 17 15 13 12 11 11 11 11 11 11 10 11 11 10 9 9 9 8 8 8 7
3 2 1 3 5 3 5 5 2 3 5 10 9 8 7 5 7 10 6 14 19 17 11 13 20 20 19 18 17 16 15 13 12 11 10 10 10 9 9 9 10 10 9 9 8 8 7 7 6
3 1 2 4 2 3 4 5 3 3 7 8 7 7 5 5 9 8 10 18 16 14 12 14 22 21 19 18 18 17 16 15 13 12 11 10 9 9 9 9 9 9 8 8 7 7 7 7 6
2 3 3 4 3 6 6 5 2 2 5 8 9 7 5 2 5 11 19 19 17 13 11 14 21 20 19 18 18 17 16 15 14 12 11 10 10 9 9 9 9 9 8 8 7 7 7 6 6
2 3 4 2 6 6 7 6 2 5 4 8 11 7 3 4 17 22 19 18 17 12 9 12 19 19 19 19 17 17 16 15 14 13 12 10 9 10 10 10 9 9 9 9 8 8 8 7 7
2 4 3 3 6 5 4 7 5 9 6 8 10 8 3 8 18 19 18 16 16 15 11 10 18 18 18 18 18 17 16 16 15 13 11 10 9 9 10 10 10 10 10 9 9 10 9 9 9
3 3 1 5 6 2 1 5 7 8 8 8 10 8 5 8 15 17 15 15 14 14 12 9 10 14 18 19 19 18 18 17 16 14 13 12 11 10 12 11 11 11 10 10 10 10 11 11 11
4 4 3 5 5 4 5 2 4 9 6 9 9 11 8 10 13 14 14 13 13 12 11 9 8 8 8 11 18 19 18 17 17 16 15 14 13 11 12 11 11 13 13 13 13 13 13 13 12
2 4 2 3 5 7 7 6 5 4 6 5 6 8 12 16 14 16 13 11 11 11 9 9 8 7 6 6 11 14 16 16 15 13 15 13 7 7 8 11 14 16 16 16 16 16 16 15 14
4 3 6 5 3 5 7 6 5 5 6 5 8 11 19 14 14 16 15 13 12 11 9 8 7 6 6 7 5 4 5 6 6 5 7 5 5 5 8 10 17 18 18 18 18 18 16 13 6
4 6 7 7 5 3 5 7 2 7 4 6 13 18 18 14 11 12 12 12 12 12 11 9 9 7 6 4 3 3 3 3 5 7 7 5 5 4 6 4 9 11 14 11 11 12 8 7 5
4 8 8 6 3 3 4 4 3 5 9 11 18 20 18 15 13 11 10 10 10 11 11 11 10 9 9 6 5 6 5 5 6 8 8 6 5 5 5 5 6 6 5 6 6 5 7 9 9
6 8 6 4 5 4 4 5 5 1 8 12 14 14 13 13 10 9 8 9 10 11 9 11 12 11 10 8 6 7 8 7 8 7 9 10 7 7 7 6 6 7 6 7 7 7 9 10 10
5 4 5 6 7 4 4 7 3 4 15 16 13 9 7 8 7 5 7 7 9 10 9 10 13 14 11 9 8 8 7 7 7 8 9 10 9 8 8 8 7 7 7 8 7 8 9 9 7
6 5 8 7 6 5 4 7 1 11 20 18 15 12 12 11 11 8 5 6 8 8 8 9 11 12 10 9 8 6 5 5 5 6 8 9 9 10 9 8 7 7 6 7 5 6 6 5 5
6 4 6 10 5 7 4 4 1 14 20 16 15 14 14 11 10 9 8 6 3 1 1 3 3 5 6 4 3 2 2 3 3 4 4 7 9 11 9 7 7 6 5 5 4 4 3 4 4
6 4 9 14 9 6 8 6 5 8 15 14 13 12 12 9 7 6 7 6 6 5 4 4 4 2 1 3 3 3 3 3 4 4 4 6 7 8 8 8 8 7 5 5 4 4 3 4 4
5 5 5 7 9 5 6 4 6 6 11 12 11 10 9 8 5 4 5 6 5 4 4 2 2 2 2 1 0 2 3 3 3 4 5 6 6 7 6 7 8 7 6 6 5 5 4 4 4
5 2 4 5 8 8 7 5 3 1 6 10 10 9 9 7 3 2 3 4 4 2 1 1 2 2 2 1 1 2 3 3 4 4 6 6 6 6 6 6 7 7 7 9 8 5 5 5 3
2 4 4 5 9 8 7 7 8 7 5 12 13 10 9 6 3 2 1 2 1 1 1 2 3 3 4 3 3 3 3 3 4 4 6 7 7 7 5 6 6 6 6 6 6 6 4 4 5
3 4 3 3 5 5 6 7 6 5 9 11 11 10 10 10 8 5 3 3 2 3 4 4 5 5 5 5 3 2 2 3 3 5 5 6 7 7 7 7 6 6 6 6 8 8 7 6 5
3 1 4 5 6 3 3 1 5 2 6 5 6 7 8 8 7 6 6 6 6 7 7 7 7 7 7 6 4 4 3 4 5 5 5 7 8 8 8 7 7 7 6 7 7 8 6 6 5
1 3 5 5 5 5 4 1 4 2 4 4 3 4 6 7 9 9 10 9 9 8 7 6 6 6 6 5 4 3 3 3 4 4 6 7 8 8 8 7 7 7 7 8 8 7 7 6 6
3 7 9 7 5 3 5 2 6 5 7 5 3 4 6 8 9 10 10 8 7 5 4 3 3 4 3 2 1 1 1 3 4 6 7 7 7 8 9 8 8 8 7 8 8 7 7 7 6
7 7 6 7 6 4 4 2 7 6 6 8 8 9 9 8 8 8 8 7 5 5 5 3 3 3 2 3 3 3 3 2 2 4 6 9 8 9 10 9 8 7 7 7 7 6 6 6 6
2 8 7 3 4 7 6 3 5 3 7 9 9 9 9 8 7 7 8 7 5 6 5 4 5 4 4 4 3 3 3 1 1 3 5 7 8 9 10 10 8 7 7 6 5 5 5 5 7
3 3 8 7 1 3 5 1 2 4 5 7 8 7 7 7 6 5 5 6 6 6 6 7 7 6 5 4 3 3 3 2 2 3 5 6 7 8 9 8 6 4 3 4 4 3 4 5 6
5 7 6 4 1 3 7 4 5 8 10 8 7 6 6 4 3 4 6 6 6 6 6 7 7 6 4 4 4 3 3 2 0 2 5 6 8 8 9 8 5 2 1 1 2 2 3 3 3
1 2 4 4 5 5 4 8 7 8 8 6 6 6 4 3 3 4 6 6 7 6 6 6 5 4 4 5 5 4 3 3 1 2 4 5 6 7 8 8 6 4 3 1 0 1 1 3 2
5 6 6 4 5 6 5 11 8 1 2 3 3 3 1 2 4 5 6 6 6 6 5 6 5 5 6 6 5 5 4 3 3 3 5 5 6 6 6 6 6 5 4 4 4 3 3 4 4
Wind_Direction
275 271 294 352 48 46 339 290 270 80 72 74 86 90 90 88 136 153 122 141 139 143 155 159 159 159 156 150 145 143 143 142 139 136 133 131 130 130 131 134 135 135 133 131 129 127 122 119 116
308 293 20 19 60 36 299 279 260 124 119 111 97 88 85 76 95 112 117 143 141 143 150 159 162 162 158 151 149 150 153 155 155 155 152 148 147 147 146 145 144 145 146 146 145 143 140 141 143
279 324 66 45 62 197 250 253 223 122 133 114 82 58 65 104 115 126 140 141 139 144 151 161 164 166 161 156 155 158 161 164 166 168 167 165 165 164 162 158 155 155 159 162 165 163 161 166 173
290 47 45 59 265 237 226 245 179 67 87 91 94 66 35 81 125 129 139 142 142 149 152 160 164 169 167 165 164 165 167 169 172 175 177 177 179 178 175 174 173 172 174 178 181 183 185 191 196
100 70 42 340 264 235 218 231 167 70 45 101 100 95 41 30 115 132 141 146 147 150 154 160 164 169 170 170 170 171 172 175 178 181 185 188 191 190 185 186 191 191 192 196 197 202 202 208 214
38 62 50 296 281 259 211 194 139 102 105 115 109 109 88 115 128 142 146 152 152 154 157 160 166 168 169 170 172 175 179 181 184 187 190 193 200 201 192 194 202 208 209 211 217 217 209 216 220
127 96 242 271 281 280 43 161 148 141 154 152 127 108 123 144 145 151 149 149 150 155 158 161 168 171 172 173 175 179 183 185 187 190 193 198 205 207 201 201 211 218 221 222 224 220 220 223 227
144 92 336 314 333 351 345 70 159 150 148 124 123 133 162 175 148 147 142 145 150 157 163 166 169 171 175 178 181 183 187 190 192 193 196 198 202 207 209 208 217 223 225 226 227 226 228 228 230
94 73 301 282 324 321 336 10 360 91 97 98 121 146 155 152 135 139 143 148 154 161 169 168 171 170 171 181 190 189 194 198 198 201 204 205 210 211 213 216 221 227 229 229 230 232 234 233 233
101 147 232 228 272 304 332 359 6 82 80 76 82 107 134 145 141 147 156 161 165 168 173 173 172 170 170 189 188 190 196 199 201 204 211 207 211 221 223 226 229 231 232 233 235 237 241 243 235
186 207 240 261 260 287 325 326 29 120 135 163 144 141 147 149 150 154 161 166 171 172 174 177 177 175 179 194 174 187 198 199 205 209 215 216 220 227 230 229 236 235 237 235 237 239 238 239 233
250 260 256 255 294 296 269 290 326 151 183 169 152 151 154 159 167 169 167 162 162 169 179 177 179 183 191 195 189 194 202 207 211 214 215 216 224 231 231 234 232 228 227 230 230 232 234 237 236
259 266 266 279 320 293 288 283 276 151 144 140 142 147 159 165 172 171 166 157 157 174 184 178 181 188 196 199 199 200 207 212 215 216 219 218 220 228 229 232 228 224 220 221 224 229 237 240 240
270 295 316 314 311 299 305 306 306 90 123 126 116 121 145 154 152 148 157 160 166 179 186 177 184 193 197 200 204 206 209 216 219 220 223 222 225 232 232 231 226 220 217 218 219 224 231 236 235
305 308 320 297 286 285 341 316 315 127 123 124 119 115 113 104 92 88 130 166 178 184 181 174 186 195 202 206 207 206 211 214 222 227 228 228 229 234 234 233 230 224 213 207 208 218 221 225 223
354 6 310 284 256 257 162 234 138 140 130 133 134 127 116 105 99 90 84 84 69 64 182 155 172 196 218 236 253 263 262 262 251 242 237 239 237 237 236 233 235 227 208 198 196 193 197 209 210
6 329 285 289 277 218 157 188 161 152 132 139 137 127 121 113 102 101 99 95 81 72 78 77 65 89 230 258 278 286 286 280 272 268 256 248 247 242 233 235 236 224 213 209 204 196 190 208 218
265 275 291 301 325 78 103 120 143 163 144 142 129 122 120 116 118 112 95 93 93 97 103 108 116 146 162 159 324 323 313 295 285 277 271 268 259 251 237 238 235 221 219 223 215 209 199 206 210
239 303 342 347 352 45 36 24 18 95 141 130 128 128 124 122 121 88 78 75 71 63 77 175 207 205 186 201 236 251 256 259 269 267 266 271 268 256 241 241 238 225 223 223 217 209 210 217 181
339 45 20 359 357 25 22 6 360 14 126 142 141 134 130 130 143 176 117 75 63 44 130 190 209 214 205 204 211 218 236 257 259 269 278 276 275 267 250 241 241 234 231 227 217 207 207 210 182
7 89 64 19 2 23 46 357 355 18 94 119 133 141 148 161 175 188 188 209 213 217 207 203 214 215 211 210 218 258 288 297 296 294 291 287 284 278 265 249 243 238 226 229 226 216 211 220 213
348 50 48 19 25 317 77 320 307 96 95 124 148 154 160 163 169 175 188 199 203 209 206 203 210 212 215 209 209 224 244 265 271 279 284 290 288 280 272 261 249 240 228 227 228 222 216 212 222
271 35 25 350 337 327 337 110 274 120 152 198 196 175 170 174 176 186 198 203 206 204 201 205 210 215 219 215 217 236 260 271 291 306 306 304 299 289 279 269 258 245 230 223 222 220 214 208 208
64 33 8 19 50 331 276 191 268 221 205 191 198 194 193 195 196 205 214 213 219 219 216 215 207 219 216 188 154 130 331 336 337 330 323 317 308 298 287 276 261 245 231 223 221 221 217 212 209
64 66 22 359 6 277 274 210 257 249 184 172 192 212 219 221 221 227 233 234 239 231 230 226 198 208 185 136 121 114 105 64 348 325 321 316 307 298 287 277 262 248 234 225 214 207 211 205 199
133 129 147 199 247 284 310 223 246 236 169 185 199 212 224 235 243 243 238 228 221 215 215 207 199 208 192 164 147 129 117 102 345 325 317 312 306 298 291 279 262 248 234 221 209 207 210 208 210
152 154 168 148 271 294 302 321 280 253 217 215 220 232 247 255 252 234 203 183 187 195 201 200 205 213 203 179 148 132 123 91 355 329 323 320 319 316 317 308 284 258 231 213 196 205 212 211 215
158 155 92 98 164 292 299 293 239 235 231 229 222 214 219 214 205 177 178 183 192 199 206 205 210 210 199 177 166 163 161 157 273 324 327 324 324 331 340 344 339 325 275 213 197 206 210 191 188
209 175 128 138 166 169 263 274 239 227 219 203 200 189 185 191 209 218 216 207 201 202 201 202 209 202 195 191 184 178 181 184 227 293 306 313 319 334 347 351 357 354 345 337 170 199 171 139 107
188 187 147 160 236 188 194 264 282 267 99 106 103 115 15 320 297 272 243 216 209 210 207 201 200 202 210 204 193 194 190 192 223 264 287 303 316 328 342 352 359 9 27 40 56 64 73 86 94